Location: Vancouver
(49.2500°N, 123.1330°W)
Time: 23:58:28
(UTC-07:00)

YAOGAN 6 - Visible Passes

Search period start: 26 September 2016 00:00
Search period end: 06 October 2016 00:00
Orbit: 470 x 511 km, 97.2° (Epoch: 26 September)

Date Brightness Start Highest point End Pass type
(mag) Time Alt. Az. Time Alt. Az. Time Alt. Az.
26 Sep 4.8 20:55:46 14° NE 20:55:46 14° NE 20:56:47 10° NNE visible
26 Sep 5.5 22:30:15 16° NNW 22:30:15 16° NNW 22:31:07 10° NNW visible
27 Sep 5.2 22:07:36 18° NNW 22:07:36 18° NNW 22:08:38 10° NNW visible
28 Sep 5.0 21:44:56 18° N 21:44:56 18° N 21:45:59 10° N visible
29 Sep 5.0 21:22:16 16° NNE 21:22:16 16° NNE 21:23:10 10° N visible
30 Sep 5.1 20:59:36 12° NNE 20:59:36 12° NNE 21:00:05 10° NNE visible
30 Sep 5.9 22:34:05 11° NNW 22:34:05 11° NNW 22:34:17 10° NNW visible
01 Oct 5.6 22:11:25 13° NNW 22:11:25 13° NNW 22:11:50 10° NNW visible
02 Oct 5.4 21:48:44 13° N 21:48:44 13° N 21:49:11 10° N visible
03 Oct 5.3 21:26:04 12° N 21:26:04 12° N 21:26:23 10° N visible
